Philip, SD

4:16 AM MST on December 17, 2017 (GMT -0700)
Philip

Weather History for KPHP - March, 2014

Change the Weather History Date:

Monday, March 10, 2014

  Actual Average Record
Temperature  
Mean Temperature 51 °F 32 °F  
Max Temperature 64 °F 45 °F 84 °F (1972)
Min Temperature 37 °F 20 °F -15 °F (1948)
Degree Days  
Heating Degree Days 14 33  
Month to date heating degree days 397 342  
Since 1 July heating degree days 6000 5707  
Cooling Degree Days 0 0  
Month to date cooling degree days 0 0  
Year to date cooling degree days 0 0  
Moisture  
Dew Point 34 °F    
Average Humidity 58    
Maximum Humidity 79    
Minimum Humidity 36    
Precipitation  
Precipitation 0.00 in 0.04 in 0.25 in (1956)
Month to date precipitation 0.24 0.40  
Year to date precipitation 0.72 1.18  
Sea Level Pressure  
Sea Level Pressure 29.73 in    
Wind  
Wind Speed 13 mph (North)    
Max Wind Speed 29 mph    
Max Gust Speed 37 mph    
Visibility 10 miles    
Events      
T = Trace of Precipitation, MM = Missing Value Source: NWS Daily Summary

Daily Weather History Graph

Daily Weather History Graph

Search for Another Location

Airport or City:

Trip Planner

Search our weather history database for the weather conditions in past years. The results will help you decide how hot, cold, wet, or windy it might be!

Date:

Astronomy

Mar. 10, 2014 Rise Set
Actual Time 7:07 AM MDT 6:46 PM MDT
Civil Twilight 6:38 AM MDT 7:15 PM MDT
Nautical Twilight 6:05 AM MDT 7:48 PM MDT
Astronomical Twilight 5:31 AM MDT 8:22 PM MDT
Moon 1:23 PM MDT (3/10) 3:29 AM MDT (3/10)
Length of Visible Light 12h 36m
Length of Day
11h 38m
Waxing Gibbous, 70% of the Moon is Illuminated
Mar 10
Waxing Gibbous
Mar 16
Full
Mar 23
Last Quarter
Mar 30
New
Apr 7
First Quarter

Hourly Weather History & Observations

Time (MDT) Temp. Windchill Dew Point Humidity Pressure Visibility Wind Dir Wind Speed Gust Speed Precip Events Conditions
12:55 AM 43.0 °F 37.7 °F 30.0 °F 60% 29.81 in 10.0 mi West 9.2 mph - N/A   Clear
1:55 AM 43.0 °F 38.2 °F 28.9 °F 58% 29.81 in 10.0 mi West 8.1 mph - N/A   Clear
2:55 AM 43.0 °F 37.7 °F 28.9 °F 58% 29.79 in 10.0 mi West 9.2 mph - N/A   Clear
3:55 AM 42.1 °F 35.7 °F 28.9 °F 60% 29.78 in 10.0 mi West 11.5 mph - N/A   Clear
4:55 AM 41.0 °F 35.2 °F 28.9 °F 62% 29.80 in 10.0 mi West 9.2 mph - N/A   Clear
5:55 AM 39.0 °F 32.8 °F 28.9 °F 67% 29.83 in 10.0 mi West 9.2 mph - N/A   Clear
6:55 AM 37.0 °F 29.8 °F 28.0 °F 70% 29.83 in 10.0 mi West 10.4 mph - N/A   Clear
7:55 AM 37.9 °F 30.9 °F 28.9 °F 70% 29.83 in 10.0 mi West 10.4 mph - N/A   Clear
8:55 AM 42.1 °F 37.7 °F 30.0 °F 62% 29.82 in 10.0 mi WSW 6.9 mph - N/A   Clear
9:55 AM 52.0 °F - 32.0 °F 47% 29.80 in 10.0 mi West 6.9 mph - N/A   Clear
10:55 AM 57.9 °F - 34.0 °F 41% 29.78 in 10.0 mi West 3.5 mph - N/A   Clear
11:55 AM 62.1 °F - 36.0 °F 38% 29.77 in 10.0 mi Calm Calm - N/A   Clear
12:55 PM 63.0 °F - 37.0 °F 38% 29.72 in 10.0 mi East 5.8 mph - N/A   Clear
1:55 PM 63.0 °F - 39.0 °F 41% 29.67 in 10.0 mi NE 13.8 mph - N/A   Clear
2:55 PM 60.1 °F - 39.0 °F 46% 29.65 in 10.0 mi East 12.7 mph - N/A   Clear
3:55 PM 60.1 °F - 39.9 °F 47% 29.61 in 10.0 mi East 17.3 mph - N/A   Clear
4:55 PM 60.1 °F - 39.0 °F 46% 29.59 in 10.0 mi East 16.1 mph - N/A   Clear
5:55 PM 55.9 °F - 39.9 °F 55% 29.60 in 10.0 mi ENE 12.7 mph - N/A   Clear
6:55 PM 50.0 °F - 39.9 °F 68% 29.63 in 10.0 mi ENE 19.6 mph 25.3 mph N/A   Clear
7:55 PM 46.9 °F - 39.9 °F 77% 29.65 in 10.0 mi ENE 17.3 mph - N/A   Clear
8:55 PM 46.0 °F 39.0 °F 39.0 °F 76% 29.67 in 10.0 mi NE 17.3 mph - N/A   Overcast
9:55 PM 44.1 °F 35.2 °F 33.1 °F 65% 29.67 in 10.0 mi NE 23.0 mph 28.8 mph N/A   Overcast
10:55 PM 41.0 °F 30.7 °F 32.0 °F 70% 29.68 in 10.0 mi NE 25.3 mph 35.7 mph N/A   Scattered Clouds
11:28 PM 39.2 °F 28.3 °F 33.8 °F 81% 29.70 in 10.0 mi NE 25.3 mph 31.1 mph N/A   Mostly Cloudy
11:47 PM 39.2 °F 29.3 °F 33.8 °F 81% 29.72 in 10.0 mi NE 20.7 mph 28.8 mph N/A   Overcast
11:55 PM 39.0 °F 29.9 °F 33.1 °F 79% 29.74 in 10.0 mi NE 17.3 mph 27.6 mph N/A   Overcast